Location: Bruch
(44.2051°N, 0.4120°E)
Time: 04:05:57
(UTC+00:00)

ERS-2 - Pass Details

Date: 29 November 2020
Orbit: 492 x 498 km, 98.6° (Epoch: 24 January)

Event Time Altitude Azimuth Distance (km) Brightness Sun altitude
Rises 05:50:43 0° 205° (SSW) 2,563 5.6 -14.2°
Reaches altitude 10° 05:53:28 10° 229° (SW) 1,689 4.5 -13.7°
Enters shadow 05:54:15 13° 240° (WSW) 1,520 4.2 -13.6°
